This is the latest recevied weather packets stored in our database for station/object PY2SDN-13. If no packets are shown the sender has not sent any weather packets the latest 10 day(s).
| Time | Temp. | Humidity | Pressure | Rain* | Wind** | Luminosity | Snow |
|---|---|---|---|---|---|---|---|
| 1777980604 | 27.78° C | 26% | 1014.9 hPa | 0 mm | - | 0 W/m² | - |
| 1777979704 | 26.67° C | 26% | 1014.7 hPa | 0 mm | - | 0 W/m² | - |
| 1777978804 | 23.89° C | 26% | 1014.6 hPa | 0 mm | - | 0 W/m² | - |
| 1777977904 | 22.22° C | 26% | 1014.6 hPa | 0 mm | - | 0 W/m² | - |
| 1777977004 | 21.11° C | 26% | 1014.5 hPa | 0 mm | - | 0 W/m² | - |
| 1777976104 | 20.56° C | 26% | 1014.1 hPa | 0 mm | - | 0 W/m² | - |
| 1777975204 | 20° C | 26% | 1014 hPa | 0 mm | - | 0 W/m² | - |
| 1777974304 | 19.44° C | 26% | 1013.6 hPa | 0 mm | - | 0 W/m² | - |
| 1777973404 | 19.44° C | 26% | 1013.3 hPa | 0 mm | - | 0 W/m² | - |
| 1777972504 | 19.44° C | 26% | 1013.1 hPa | 0 mm | - | 0 W/m² | - |
| 1777971603 | 19.44° C | 26% | 1013.1 hPa | 0 mm | - | 0 W/m² | - |
| 1777970703 | 19.44° C | 26% | 1012.7 hPa | 0 mm | - | 0 W/m² | - |
| 1777969803 | 19.44° C | 26% | 1012.6 hPa | 0 mm | - | 0 W/m² | - |
| 1777968903 | 19.44° C | 26% | 1012.4 hPa | 0 mm | - | 0 W/m² | - |
| 1777968003 | 19.44° C | 26% | 1012.5 hPa | 0 mm | - | 0 W/m² | - |
| 1777967104 | 19.44° C | 26% | 1012.4 hPa | 0 mm | - | 0 W/m² | - |
| 1777966203 | 19.44° C | 26% | 1012.4 hPa | 0 mm | - | 0 W/m² | - |
| 1777965303 | 20° C | 26% | 1012.4 hPa | 0 mm | - | 0 W/m² | - |
| 1777964403 | 20° C | 26% | 1012.4 hPa | 0 mm | - | 0 W/m² | - |
| 1777963503 | 20° C | 26% | 1012.7 hPa | 0 mm | - | 0 W/m² | - |
| 1777962603 | 20° C | 26% | 1012.8 hPa | 0 mm | - | 0 W/m² | - |
| 1777961703 | 20° C | 26% | 1013 hPa | 0 mm | - | 0 W/m² | - |
| 1777960803 | 20° C | 26% | 1013.2 hPa | 0 mm | - | 0 W/m² | - |
| 1777959904 | 20° C | 26% | 1011.6 hPa | 0 mm | - | 0 W/m² | - |
| 1777959003 | 20° C | 26% | 1011.5 hPa | 0 mm | - | 0 W/m² | - |
* Rain latest hour (hover to see other rain measurements)
** Current wind speed in m/s (hover to see current wind gust speed)